Regional Weather Roundup
Issued by NWS Bismarck, ND

Home | Current Version | Previous Version | Text Only | Print | Product List | Glossary On
Versions: 1 2 3 4 5 6 7 8 9 10 11 12 13 14 15 16 17 18 19 20 21 22 23 24 25 26 27 28 29 30 31 32 33 34 35 36 37 38 39 40 41 42 43 44 45 46 47 48 49 50
889
ASUS43 KBIS 110010
RWRBIS

NWR BROADCAST TEXT
NATIONAL WEATHER SERVICE BISMARCK ND
600 PM CST SAT DEC 10 2016

NOTE: "FAIR" INDICATES FEW OR NO CLOUDS BELOW 12,000 FEET WITH NO
SIGNIFICANT WEATHER AND/OR OBSTRUCTIONS TO VISIBILITY.


CITY           SKY/WX    TMP DP  RH WIND       PRES   REMARKS
WILLISTON      FLURRIES   3  -5  69 SE10      29.96F WCI -12
MINOT          CLOUDY    -6 -11  79 E14       30.08F WCI -26
MINOT AFB      CLOUDY    -8 -12  79 E13       30.09F WCI -28
BISMARCK       CLOUDY    -3  -7  82 E10       30.05F WCI -20
DICKINSON      CLOUDY    -5  -9  83 E17       29.87R WCI -27
GARRISON         N/A     -3  -9  75 E13       30.03F WCI -22
HETTINGER ARPT CLOUDY    -2  -6  83 SE14      29.87R WCI -21
JAMESTOWN      FLURRIES  -2  -7  79 E14       30.13F WCI -21
CARRINGTON     FLURRIES  -2  -6  84 E13       30.16R WCI -21
HAZEN          CLOUDY    -2  -9  71 E9        30.06R WCI -18
RUGBY            N/A     -4  -8  84 SE10      30.15S WCI -21
STANLEY        CLOUDY    -2  -6  84 E14       30.00S WCI -21
TIOGA          MOCLDY    -2  -4  92 SE18      29.97F FOG     WCI -24
WATFORD CITY   CLOUDY     0  -6  78 E16       29.94F WCI -21
$$

CITY           SKY/WX    TMP DP  RH WIND       PRES   REMARKS
GRAND FORKS    CLOUDY    -4  -9  79 E6        30.28F WCI -16
GRAND FORKS AF CLOUDY    -4  -9  77 SE6       30.27F WCI -16
DEVILS LAKE    CLOUDY    -4  -8  83 E12       30.17F WCI -22
FARGO          CLOUDY     2  -6  69 E9        30.23F WCI -13
CANDO          CLOUDY    -4  -8  84 SE8       30.19F WCI -19
CAVALIER         N/A     -4  -9  77 E3        30.29F
GRAFTON        FAIR      -8 -11  84 E7        30.31F WCI -22
GWINNER        CLOUDY     1  -2  85 E14       30.16F WCI -17
LANGDON        FAIR      -8 -13  77 E7        30.18F WCI -22
ROLLA          FAIR      -9 -13  84 CALM      30.14S
WALHALLA         N/A     -9  -9 100 E5        30.28F WCI -21
$$

CITY           SKY/WX    TMP DP  RH WIND       PRES   REMARKS
ABERDEEN       LGT SNOW   6  -1  73 E16       30.08F WCI -12
MOBRIDGE       LGT SNOW   5  -3  69 E9        29.96R WCI  -9
BUFFALO          N/A      2  -4  76 E13       29.71S WCI -15
RAPID CITY     CLOUDY     5   1  83 SE9       29.74F WCI  -9
GLASGOW        LGT SNOW   2  -3  80 E15       29.84R WCI -17
SIDNEY         LGT SNOW   2  -4  76 SE13      29.93S WCI -15
WOLF POINT     LGT SNOW   5  -1  76 E14       29.87F VSB 3/4 WCI -12
GLENDIVE       LGT SNOW   3   0  87 SE7       29.84R FOG     WCI  -9
MILES CITY     LGT SNOW  11   4  73 CALM      29.79R
BAKER          CLOUDY     2  -4  76 SE22      29.78R WCI -20
$$

CITY           SKY/WX    TMP DP  RH WIND       PRES   REMARKS
BILLINGS       CLOUDY    14  12  92 S8        29.68R WCI   3
GREAT FALLS    CLOUDY     2  -2  83 S3        29.74R
REGINA         PTCLDY    -8 -15  71 E13G18    30.04S WCI -28
ESTEVAN        CLOUDY   -11 -17  77 E15       30.03F WCI -34
$$





USA.gov is the U.S. government's official web portal to all federal, state and local government web resources and services.